FW8334 Weather Reports


Display with metric or nautical units.
time (UTC)temp
F
wind
direction
speed
MPH
gust
MPH
rain 1hr
in
rain 24hr
in
rain mn
in
humidity
%
barometer
mb
20260506034542 56 5 0.0 1.0 0.00 0.31 0.31 83 1015.2
20260506033043 57 0 0.0 0.0 0.00 0.31 0.31 82 1015.0
20260506031540 58 0 0.0 1.0 0.00 0.31 0.31 79 1014.9
20260506030039 58 0 0.0 3.0 0.00 0.31 0.31 78 1014.6
20260506024540 59 0 0.0 3.0 0.00 0.31 0.31 77 1014.7
20260506023044 59 0 0.0 3.0 0.00 0.31 0.31 75 1014.4
20260506021541 60 0 0.0 4.0 0.01 0.31 0.31 74 1014.3
20260506020039 60 179 0.0 7.0 0.01 0.31 0.31 73 1014.2
20260506014545 61 233 2.0 8.0 0.01 0.31 0.31 70 1014.1
20260506013038 61 309 2.0 6.0 0.01 0.31 0.31 69 1014.0
20260506011540 63 284 3.0 6.0 0.00 0.30 0.30 68 1013.8
20260506010040 63 235 1.0 14.0 0.00 0.30 0.30 68 1013.9
20260506004543 64 248 1.0 4.0 0.00 0.30 0.30 69 1013.8
20260506003039 65 257 2.0 11.0 0.01 0.30 0.30 65 1013.9
20260506001547 65 319 3.0 11.0 0.01 0.30 0.30 66 1013.7
20260506000046 66 254 3.0 10.0 0.01 0.30 0.30 61 1013.8
20260505234548 65 294 5.0 11.0 0.01 0.30 0.30 62 1013.7
20260505233043 65 221 3.0 11.0 0.00 0.29 0.29 66 1013.7
20260505231547 67 212 4.0 10.0 0.01 0.29 0.29 62 1013.8
20260505230042 66 274 3.0 10.0 0.01 0.29 0.29 64 1013.8
20260505224542 68 301 2.0 13.0 0.01 0.29 0.29 60 1013.9
20260505223043 67 306 3.0 12.0 0.01 0.29 0.29 60 1013.9
20260505221546 67 288 2.0 12.0 0.00 0.28 0.28 59 1014.0
20260505220041 68 259 4.0 10.0 0.01 0.28 0.28 59 1014.2
20260505214554 66 206 5.0 12.0 0.01 0.28 0.28 58 1014.2
20260505213053 67 241 6.0 17.0 0.01 0.28 0.28 58 1014.3
20260505211539 68 219 3.0 10.0 0.02 0.28 0.28 60 1014.3
20260505210036 67 300 3.0 11.0 0.01 0.27 0.27 62 1014.4
20260505204538 66 238 5.0 12.0 0.01 0.27 0.27 62 1014.5
20260505203047 66 258 5.0 11.0 0.01 0.27 0.27 64 1014.5
20260505201550 67 248 4.0 12.0 0.01 0.26 0.26 65 1014.5
20260505200040 65 247 6.0 13.0 0.01 0.26 0.26 64 1014.4
20260505194541 66 273 3.0 10.0 0.02 0.26 0.26 63 1014.6
20260505193044 66 273 4.0 12.0 0.02 0.26 0.26 63 1014.8
20260505191548 66 239 4.0 11.0 0.01 0.25 0.25 63 1014.8
20260505190055 66 290 2.0 12.0 0.02 0.25 0.25 64 1014.7
20260505184549 65 288 2.0 8.0 0.01 0.24 0.24 63 1014.7
20260505183048 64 274 2.0 9.0 0.02 0.24 0.24 68 1014.7
20260505181536 64 217 3.0 8.0 0.02 0.24 0.24 70 1014.7
20260505180049 62 291 4.0 9.0 0.01 0.23 0.23 72 1014.7
20260505174543 63 0 3.0 13.0 0.02 0.23 0.23 70 1014.5
20260505173042 63 285 2.0 11.0 0.01 0.22 0.22 75 1014.4
20260505171542 62 288 1.0 7.0 0.02 0.22 0.22 80 1014.1
20260505170040 61 255 1.0 4.0 0.02 0.22 0.22 83 1014.1
20260505164540 60 267 2.0 10.0 0.02 0.21 0.21 86 1014.0
20260505163041 59 225 2.0 7.0 0.02 0.21 0.21 92 1013.9
20260505161540 59 0 0.0 2.0 0.02 0.20 0.20 95 1013.8
20260505153036 57 0 0.0 2.0 0.03 0.19 0.19 96 1013.7
20260505151543 56 0 0.0 2.0 0.03 0.18 0.18 96 1013.6
20260505124544 55 0 1.0 3.0 0.04 0.11 0.11 95 1012.1
20260505123104 55 246 0.0 2.0 0.04 0.11 0.11 95 1012.2
20260505121540 55 247 0.0 3.0 0.03 0.10 0.10 95 1012.2
20260505120047 55 278 0.0 2.0 0.02 0.09 0.09 95 1012.2
20260505114546 55 278 0.0 1.0 0.01 0.07 0.07 95 1012.2
20260505113036 55 0 0.0 1.0 0.03 0.07 0.07 94 1012.1
20260505111541 55 0 0.0 1.0 0.04 0.07 0.07 94 1012.1
20260505101544 56 0 0.0 1.0 0.02 0.03 0.03 93 1012.4
20260505100041 56 0 0.0 0.0 0.01 0.02 0.02 93 1012.4
20260505094540 56 0 0.0 1.0 0.01 0.02 0.02 93 1012.6
20260505093046 56 0 0.0 1.0 0.01 0.02 0.02 92 1012.6
20260505091544 56 0 0.0 2.0 0.00 0.01 0.01 92 1012.8
20260505090048 56 278 0.0 2.0 0.00 0.01 0.01 91 1012.8
20260505084542 56 0 0.0 1.0 0.00 0.01 0.01 92 1012.9
20260505083042 56 0 0.0 1.0 0.00 0.01 0.01 91 1012.9
20260505081546 56 0 0.0 1.0 0.00 0.01 0.01 91 1013.2
20260505080050 57 0 0.0 3.0 0.01 0.01 0.01 92 1013.3
20260505074539 58 0 0.0 0.0 0.01 0.01 0.01 92 1013.3
20260505073050 58 0 0.0 0.0 0.01 0.01 0.01 91 1013.4
20260505071540 58 20 0.0 0.0 0.01 0.01 0.01 90 1013.6
20260505070050 59 0 0.0 0.0 0.00 0.00 0.00 88 1013.6
20260505064539 59 0 0.0 1.0 0.00 0.00 0.00 88 1013.6
20260505063036 58 0 0.0 1.0 0.00 0.00 0.00 88 1013.9
20260505061536 58 0 0.0 1.0 0.00 0.00 0.00 88 1013.9
20260505060044 58 0 0.0 2.0 0.00 0.00 0.00 88 1014.0
20260505054542 59 0 0.0 1.0 0.00 0.00 0.00 86 1014.1
20260505053040 59 244 0.0 2.0 0.00 0.00 0.00 86 1014.1
20260505051539 59 268 0.0 4.0 0.00 0.00 0.00 85 1014.4
20260505050117 60 0 0.0 8.0 0.00 0.00 0.00 84 1014.3
20260505041551 61 296 1.0 6.0 0.00 0.00 0.00 76 1014.2
20260505040051 61 0 0.0 2.0 0.00 0.00 0.00 77 1014.1